Location: Unspecified
(38.7273°N, 77.0677°W)
Time: 06:51:52
(UTC-04:00)

CAS-4B - Pass Details

Date: 24 September 2021
Orbit: 529 x 541 km, 43.0° (Epoch: 19 October)

Event Time Altitude Azimuth Distance (km) Brightness Sun altitude
Exits shadow 04:42:25 45° 66° (ENE) 724 ? -26.6°
Drops below altitude 10° 04:45:18 10° 69° (ENE) 1,770 ? -26.1°
Sets 04:47:32 0° 69° (ENE) 2,661 ? -25.7°
